Location: Goudex
(43.3760°N, 0.9543°E)
Time: 19:46:20
(UTC+00:00)

COSMO-SKYMED 1 - Pass Details

Date: 20 November 2019
Orbit: 621 x 623 km, 97.9° (Epoch: 04 December)

Event Time Altitude Azimuth Distance (km) Brightness Sun altitude
Rises 04:29:04 0° 144° (SE) 2,891 6.5 -26.4°
Reaches altitude 10° 04:31:22 10° 136° (SE) 1,989 5.7 -25.9°
Maximum altitude 04:35:19 36° 70° (ENE) 987 4.0 -25.2°
Drops below altitude 10° 04:39:18 10° 4° (N) 2,002 5.2 -24.5°
Enters shadow 04:39:59 - 1° (N) 2,261 5.4 -24.4°
